Tracking 23446 objects as of 20-Jun-2021
HD Live streaming from Space Station
objects crossing your sky now

ONEWEB-0224

Track ONEWEB-0224 now!
10-day predictions
ONEWEB-0224 is classified as:


NORAD ID: 48794
Int'l Code: 2021-045AD
Perigee: 496.3 km
Apogee: 507.3 km
Inclination: 87.4 °
Period: 94.5 minutes
Semi major axis: 6872 km
RCS: Unknown
Launch date: May 28, 2021
Source: United Kingdom (UK)
Launch site: VOSTOCHNY COSMODROME (VOSTO)
aabbcc
Your satellite tracking list
Your tracking list is empty




NASA's NSSDC Master Catalog

Two Line Element Set (TLE):
1 48794U 21045AD  21171.41667824 -.01052794  00000-0 -47828-1 0  9994
2 48794  87.3981 268.6241 0007976 162.1605 266.6408 15.23713607  4752
Source of the keplerian elements: AFSPC